Flag for U.S.A. Weather past 2 weeks in Lexington-Fayette, Kentucky, U.S.A.

Now
62 °F

Sunny.


Feels Like: 62 °F
Forecast: 41 / 64 °F
Wind: No wind

Location: Blue Grass Airport

Current Time: Oct 24, 2014 at 7:52:07 PM

Latest Report: Oct 24, 2014 at 6:54 PM


Visibility: 10 mi

Pressure: 30.05 "Hg

Humidity: 48%

Dew point: 42 °F

Location of Lexington-FayetteLocation

Historic Weather in Lexington-Fayette — Graph

°F

Lexington-Fayette temperature yesterday

Maximum temperature yesterday: 62 °F (at 3:54 PM)
Minimum temperature yesterday: 47 °F (at 11:54 PM)
Average temperature yesterday: 53 °F

Past Weeks' High & Low Weather Summary

 TemperatureHumidityPressure
High80 °F (Oct 13, 4:54 PM)90% (Oct 10, 5:54 PM)30.29 "Hg (Oct 10, 5:54 PM)
Low40 °F (Oct 24, 5:54 AM)40% (Oct 24, 5:54 PM)29.62 "Hg (Oct 14, 10:54 AM)
Average58 °F74%29.99 "Hg
* Reported Oct 9 6:54 PM — Oct 24 6:54 PM, Lexington-Fayette, Weather by CustomWeather, © 2014

Note: Actual official high and low records may vary slightly from our data, if they occured in-between our weather recording intervals... More about our weather records

Advertising

Lexington-Fayette weather history for previous 24 hours

 ConditionsComfort  
Time TempWeatherWind HumidityBarometerVisibility
6:54 PM
Oct 24
62 °FSunny.No wind48%30.05 "Hg10 mi
5:54 PM65 °FSunny.No wind40%30.05 "Hg10 mi
4:54 PM65 °FSunny.6 mph44%30.05 "Hg10 mi
3:54 PM65 °FSunny.No wind42%30.06 "Hg10 mi
2:54 PM64 °FSunny.3 mph47%30.06 "Hg10 mi
1:54 PM63 °FSunny.6 mph50%30.10 "Hg10 mi
12:54 PM63 °FSunny.No wind48%30.11 "Hg10 mi
11:54 AM58 °FSunny.No wind62%30.13 "Hg10 mi
10:54 AM54 °FSunny.No wind80%30.14 "Hg5 mi
9:54 AM48 °FFog.No wind86%30.14 "Hg5 mi
8:54 AM43 °FFog.No wind86%30.14 "Hg5 mi
7:54 AM40 °FFog.3 mph89%30.14 "Hg5 mi
6:54 AM43 °FFog.No wind86%30.14 "Hg6 mi
5:54 AM40 °FFog.No wind89%30.13 "Hg6 mi
4:54 AM43 °FFog.No wind86%30.11 "Hg6 mi
3:54 AM44 °FClear.No wind85%30.11 "Hg8 mi
2:54 AM46 °FClear.No wind86%30.11 "Hg7 mi
1:54 AM43 °FClear.No wind86%30.11 "Hg7 mi
12:54 AM48 °FClear.No wind80%30.11 "Hg9 mi
11:54 PM
Oct 23
47 °FClear.5 mph80%30.12 "Hg8 mi
10:54 PM49 °FClear.No wind77%30.14 "Hg10 mi
9:54 PM50 °FClear.No wind74%30.14 "Hg10 mi
8:54 PM51 °FClear.No wind71%30.15 "Hg9 mi
7:54 PM53 °FClear.3 mph64%30.14 "Hg10 mi
Weather by CustomWeather, © 2014

See weather overviewHow to use our weather pages